This is the latest recevied weather packets stored in our database for station/object K8BCO. If no packets are shown the sender has not sent any weather packets the latest 10 day(s).
| Time | Temp. | Humidity | Pressure | Rain* | Wind** | Luminosity | Snow |
|---|---|---|---|---|---|---|---|
| 1777838716 | 15.56° C | 54% | 1000.4 hPa | 0 mm | - | 465 W/m² | - |
| 1777838116 | 16.67° C | 52% | 1000.6 hPa | 0 mm | - | 193 W/m² | - |
| 1777837517 | 16.67° C | 52% | 1000.4 hPa | 0 mm | - | 425 W/m² | - |
| 1777836917 | 17.22° C | 51% | 1000.5 hPa | 0 mm | - | 805 W/m² | - |
| 1777836316 | 17.22° C | 52% | 1000.5 hPa | 0 mm | - | 607 W/m² | - |
| 1777835717 | 16.67° C | 53% | 1000.7 hPa | 0 mm | - | 851 W/m² | - |
| 1777835117 | 16.11° C | 55% | 1000.9 hPa | 0 mm | - | 705 W/m² | - |
| 1777834517 | 16.11° C | 56% | 1000.9 hPa | 0 mm | - | 536 W/m² | - |
| 1777833918 | 15° C | 58% | 1001 hPa | 0 mm | - | 815 W/m² | - |
| 1777833322 | 14.44° C | 62% | 1001.1 hPa | 0 mm | - | 503 W/m² | - |
| 1777832717 | 14.44° C | 61% | 1001.2 hPa | 0 mm | - | 280 W/m² | - |
| 1777832118 | 14.44° C | 62% | 1001.3 hPa | 0 mm | - | 351 W/m² | - |
| 1777831519 | 15.56° C | 58% | 1001.2 hPa | 0 mm | - | 93 W/m² | - |
| 1777830919 | 17.22° C | 52% | 1001.1 hPa | 0 mm | - | 233 W/m² | - |
| 1777830316 | 17.22° C | 47% | 1001.2 hPa | 0 mm | - | 282 W/m² | - |
| 1777829716 | 17.22° C | 47% | 1001.2 hPa | 0 mm | - | 160 W/m² | - |
| 1777829116 | 17.22° C | 47% | 1001.3 hPa | 0 mm | - | 270 W/m² | - |
| 1777828516 | 17.22° C | 48% | 1001.4 hPa | 0 mm | - | 346 W/m² | - |
| 1777827917 | 17.22° C | 47% | 1001.5 hPa | 0 mm | - | 441 W/m² | - |
| 1777827316 | 17.78° C | 49% | 1001.6 hPa | 0 mm | - | 374 W/m² | - |
| 1777826717 | 17.78° C | 49% | 1001.7 hPa | 0 mm | - | 497 W/m² | - |
| 1777826117 | 16.67° C | 50% | 1001.8 hPa | 0 mm | - | 693 W/m² | - |
| 1777825517 | 16.11° C | 55% | 1002.1 hPa | 0 mm | - | 287 W/m² | - |
| 1777824917 | 16.11° C | 54% | 1002.1 hPa | 0 mm | - | 883 W/m² | - |
| 1777824317 | 15° C | 58% | 1002.4 hPa | 0 mm | - | 447 W/m² | - |
* Rain latest hour (hover to see other rain measurements)
** Current wind speed in m/s (hover to see current wind gust speed)